Weather in Liman

Ukraine / Odesa District     45°40′19″N   29°45′01″E
temp.,
°C
wind,
m/s
gust,
m/s
humid.,
%
clouds,
%
prec.,
mm/h
press.,
hPa
HPBL,
m
2 july, sat
sat200:00+22n11520 0.0 101611
03:00+22nnw22540 0.0 101618
06:00+21nne45550 0.0 101776
09:00+27e33453 0.0 1018511
12:00+27ese76480 0.0 1019768
15:00+27ese77460 0.0 1019676
18:00+26se56450 0.0 1018450
21:00+23s33601 0.0 101838
3 july, sun
sun300:00+21sw11610 0.0 102012
03:00+20nne22620 0.0 102021
06:00+20nne22605 0.0 101943
09:00+25ne224449 0.0 1019473
12:00+26ese754848 0.0 1020932
15:00+26ese65460 0.0 1019664
18:00+25se67440 0.0 1018431
21:00+22s46580 0.0 1018163
4 july, mon
mon400:00+21ssw34592 0.0 101897
03:00+19wsw34601 0.0 101866
06:00+18w22570 0.0 101837
09:00+24sse22340 0.0 1018393
12:00+28se43303 0.0 1018894
15:00+28se54300 0.0 1018915
18:00+27sse55370 0.0 1017477
21:00+22s34565 0.0 101758
5 july, tue
tue500:00+21sw335240 0.0 101738
03:00+20w44485 0.0 101754
06:00+20nnw23505 0.0 101748
09:00+27ne33315 0.0 1017344
12:00+29ese43305 0.0 1017933
15:00+30se54315 0.0 1016895
18:00+29se44320 0.0 1015443
21:00+25s22431 0.0 101512
6 july, wed
wed600:00+23ssw22550 0.0 101612
03:00+22w22570 0.0 101521
06:00+22n33530 0.0 101539
09:00+28e34380 0.0 1015507
12:00+29ese55360 0.0 1016849
15:00+30ese55330 0.0 1015897
18:00+29se34310 0.0 1014501
21:00+24sse22460 0.0 101411